,,PA_Meas_PMT16A,,PR_Meas_QMR101_102,,RH_Meas_QMH101,,SR_Meas_QMS101,,TA_Meas_QMH101,,GenWind,,GenWind,
time,status,PA,status,PR,status,RH,status,SR,status,TA,status,DirAvg,status,SpdAvg,
2011-05-26, 00:00:04,VALID,916.739,VALID,0,VALID,94.2635,VALID,0.107441,VALID,21.26,VALID,352,VALID,0.348828,
2011-05-26, 00:01:04,VALID,916.771,VALID,0,VALID,94.1568,VALID,0,VALID,21.3006,VALID,352,VALID,0.228516,
2011-05-26, 00:02:04,VALID,916.77,VALID,0,VALID,94.1034,VALID,0,VALID,21.3006,VALID,352,VALID,0.348047,
2011-05-26, 00:03:04,VALID,916.784,VALID,0,VALID,94.1568,VALID,0,VALID,21.299,VALID,352,VALID,0.530859,
2011-05-26, 00:04:04,VALID,916.773,VALID,0,VALID,94.0958,VALID,0.107441,VALID,21.3201,VALID,352,VALID,0.358594,
2011-05-26, 00:05:04,VALID,916.719,VALID,0,VALID,94.0806,VALID,0,VALID,21.3201,VALID,352,VALID,0.651563,
2011-05-26, 00:06:04,VALID,916.715,VALID,0,VALID,94.1111,VALID,0,VALID,21.3006,VALID,352,VALID,0.610937,
2011-05-26, 00:07:04,VALID,916.72,VALID,0,VALID,94.0577,VALID,0,VALID,21.3201,VALID,352,VALID,0.729688,
2011-05-26, 00:08:04,VALID,916.703,VALID,0,VALID,93.9357,VALID,0,VALID,21.299,VALID,352,VALID,0.442578,
2011-05-26, 00:09:04,VALID,916.662,VALID,0,VALID,93.8747,VALID,0,VALID,21.3006,VALID,352,VALID,0.759375,
2011-05-26, 00:10:04,VALID,916.666,VALID,0,VALID,93.9205,VALID,0,VALID,21.2421,VALID,352,VALID,0.738281,
2011-05-26, 00:11:04,VALID,916.605,VALID,0,VALID,94.0806,VALID,0.107441,VALID,21.2226,VALID,352,VALID,0.640234,
2011-05-26, 00:12:04,VALID,916.581,VALID,0,VALID,94.2483,VALID,0,VALID,21.164,VALID,352,VALID,0.739844,
2011-05-26, 00:13:04,VALID,916.509,VALID,0,VALID,94.294,VALID,0,VALID,21.1445,VALID,352,VALID,0.970703,
2011-05-26, 00:14:04,VALID,916.484,VALID,0,VALID,94.3703,VALID,0.107441,VALID,21.1445,VALID,352,VALID,1.02539,
2011-05-26, 00:15:04,VALID,916.474,VALID,0,VALID,94.5456,VALID,0,VALID,21.1055,VALID,352,VALID,0.969922,
2011-05-26, 00:16:04,VALID,916.488,VALID,0,VALID,94.6371,VALID,0,VALID,21.1055,VALID,352,VALID,0.608594,
2011-05-26, 00:17:04,VALID,916.493,VALID,0,VALID,94.5913,VALID,0,VALID,21.125,VALID,352,VALID,0.632422,
2011-05-26, 00:18:04,VALID,916.448,VALID,0,VALID,94.4313,VALID,0,VALID,21.125,VALID,352,VALID,0.639453,
2011-05-26, 00:19:04,VALID,916.461,VALID,0,VALID,94.3245,VALID,0,VALID,21.125,VALID,352,VALID,0.770312,
2011-05-26, 00:20:04,VALID,916.436,VALID,0,VALID,94.2788,VALID,0,VALID,21.086,VALID,352,VALID,1.03477,
2011-05-26, 00:21:04,VALID,916.464,VALID,0,VALID,94.3321,VALID,0,VALID,21.047,VALID,352,VALID,1.02305,
2011-05-26, 00:22:04,VALID,916.458,VALID,0,VALID,94.3169,VALID,0,VALID,21.0486,VALID,24,VALID,0.786328,
2011-05-26, 00:23:04,VALID,916.496,VALID,0,VALID,94.5304,VALID,0,VALID,21.0275,VALID,24,VALID,0.822656,
2011-05-26, 00:24:04,VALID,916.488,VALID,0,VALID,94.6295,VALID,0,VALID,21.0275,VALID,24,VALID,0.878125,
2011-05-26, 00:25:04,VALID,916.489,VALID,0,VALID,94.6218,VALID,0,VALID,21.047,VALID,24,VALID,1.02422,
2011-05-26, 00:26:04,VALID,916.476,VALID,0,VALID,94.5456,VALID,0,VALID,21.0681,VALID,24,VALID,0.541016,
2011-05-26, 00:27:04,VALID,916.501,VALID,0,VALID,94.5609,VALID,0,VALID,21.086,VALID,24,VALID,0.632031,
2011-05-26, 00:28:04,VALID,916.496,VALID,0,VALID,94.6523,VALID,0,VALID,21.1055,VALID,24,VALID,0.955859,
2011-05-26, 00:29:04,VALID,916.484,VALID,0,VALID,94.5761,VALID,0,VALID,21.1055,VALID,24,VALID,0.663672,
2011-05-26, 00:30:04,VALID,916.475,VALID,0,VALID,94.4999,VALID,0,VALID,21.086,VALID,24,VALID,0.616406,
2011-05-26, 00:31:04,VALID,916.465,VALID,0,VALID,94.3855,VALID,0,VALID,21.047,VALID,24,VALID,0.590234,
2011-05-26, 00:32:04,VALID,916.432,VALID,0,VALID,94.5151,VALID,0,VALID,21.0275,VALID,24,VALID,0.846484,
2011-05-26, 00:33:04,VALID,916.418,VALID,0,VALID,94.6828,VALID,0,VALID,21.0275,VALID,24,VALID,0.664063,
2011-05-26, 00:34:04,VALID,916.422,VALID,0,VALID,94.7514,VALID,0,VALID,21.0259,VALID,24,VALID,0.433203,
2011-05-26, 00:35:04,VALID,916.425,VALID,0,VALID,94.8734,VALID,0.107441,VALID,21.0275,VALID,24,VALID,0.452344,
2011-05-26, 00:36:04,VALID,916.407,VALID,0,VALID,94.9573,VALID,0,VALID,21.0275,VALID,24,VALID,0.571875,
2011-05-26, 00:37:04,VALID,916.413,VALID,0,VALID,95.0183,VALID,0,VALID,21.047,VALID,24,VALID,0.63125,
2011-05-26, 00:38:04,VALID,916.431,VALID,0,VALID,95.0945,VALID,0,VALID,21.0275,VALID,24,VALID,0.286328,
2011-05-26, 00:39:04,VALID,916.394,VALID,0,VALID,95.125,VALID,0,VALID,21.0064,VALID,24,VALID,0.257422,
2011-05-26, 00:40:04,VALID,916.402,VALID,0,VALID,95.2012,VALID,0,VALID,21.0275,VALID,24,VALID,0.303125,
2011-05-26, 00:41:04,VALID,916.357,VALID,0,VALID,95.1097,VALID,0.107441,VALID,21.0486,VALID,24,VALID,0.405078,
2011-05-26, 00:42:04,VALID,916.374,VALID,0,VALID,95.0716,VALID,0,VALID,21.0291,VALID,24,VALID,0.794922,
2011-05-26, 00:43:04,VALID,916.33,VALID,0,VALID,95.0869,VALID,0,VALID,21.0096,VALID,24,VALID,0.535937,
2011-05-26, 00:44:04,VALID,916.312,VALID,0,VALID,95.1707,VALID,0,VALID,20.969,VALID,24,VALID,0.401172,
2011-05-26, 00:45:04,VALID,916.304,VALID,0,VALID,95.2546,VALID,0,VALID,20.9885,VALID,24,VALID,0.302344,
2011-05-26, 00:46:04,VALID,916.261,VALID,0,VALID,95.2851,VALID,0,VALID,20.9885,VALID,24,VALID,0.495703,
2011-05-26, 00:47:04,VALID,916.258,VALID,0,VALID,95.2546,VALID,0,VALID,20.9885,VALID,24,VALID,0.478906,
2011-05-26, 00:48:04,VALID,916.252,VALID,0,VALID,95.2851,VALID,0,VALID,21.0096,VALID,24,VALID,0.445313,
2011-05-26, 00:49:04,VALID,916.285,VALID,0,VALID,95.2851,VALID,0,VALID,21.008,VALID,24,VALID,0,
2011-05-26, 00:50:04,VALID,916.273,VALID,0,VALID,95.3003,VALID,0,VALID,21.0096,VALID,24,VALID,0,
2011-05-26, 00:51:04,VALID,916.285,VALID,0,VALID,95.3613,VALID,0,VALID,20.9885,VALID,24,VALID,0.620703,
2011-05-26, 00:52:04,VALID,916.273,VALID,0,VALID,95.3232,VALID,0,VALID,21.0275,VALID,24,VALID,0.595703,
2011-05-26, 00:53:04,VALID,916.267,VALID,0,VALID,95.3918,VALID,0,VALID,21.008,VALID,24,VALID,0.453906,
2011-05-26, 00:54:04,VALID,916.26,VALID,0,VALID,95.4757,VALID,0,VALID,21.0275,VALID,24,VALID,0.0585938,
2011-05-26, 00:55:04,VALID,916.274,VALID,0,VALID,95.4452,VALID,0,VALID,21.047,VALID,24,VALID,0,
2011-05-26, 00:56:04,VALID,916.231,VALID,0,VALID,95.4375,VALID,0,VALID,21.0486,VALID,24,VALID,0,
2011-05-26, 00:57:04,VALID,916.23,VALID,0,VALID,95.4223,VALID,0,VALID,21.0876,VALID,24,VALID,0.3125,
2011-05-26, 00:58:04,VALID,916.222,VALID,0,VALID,95.3461,VALID,0.107441,VALID,21.0275,VALID,24,VALID,0.504687,
2011-05-26, 00:59:04,VALID,916.2,VALID,0,VALID,95.2927,VALID,0,VALID,20.9885,VALID,24,VALID,0.658984,
2011-05-26, 01:00:04,VALID,916.196,VALID,0,VALID,95.3689,VALID,0,VALID,20.969,VALID,24,VALID,1.10508,
2011-05-26, 01:01:04,VALID,916.184,VALID,0,VALID,95.4833,VALID,0,VALID,20.9885,VALID,24,VALID,1.13789,
2011-05-26, 01:02:04,VALID,916.202,VALID,0,VALID,95.4909,VALID,0,VALID,20.969,VALID,24,VALID,0.920313,
2011-05-26, 01:03:04,VALID,916.23,VALID,0,VALID,95.4909,VALID,0,VALID,20.9901,VALID,24,VALID,0.892187,
2011-05-26, 01:04:04,VALID,916.227,VALID,0,VALID,95.5062,VALID,0,VALID,20.9495,VALID,24,VALID,0.846484,
2011-05-26, 01:05:04,VALID,916.198,VALID,0,VALID,95.5138,VALID,0,VALID,20.9706,VALID,24,VALID,0.665625,
2011-05-26, 01:06:04,VALID,916.172,VALID,0,VALID,95.5443,VALID,0,VALID,20.9511,VALID,24,VALID,0.571484,
2011-05-26, 01:07:05,VALID,916.109,VALID,0,VALID,95.5443,VALID,0,VALID,20.969,VALID,24,VALID,0.996484,
2011-05-26, 01:08:05,VALID,916.091,VALID,0,VALID,95.5062,VALID,0,VALID,20.969,VALID,24,VALID,1.08945,
2011-05-26, 01:09:05,VALID,916.089,VALID,0,VALID,95.4604,VALID,0,VALID,20.969,VALID,24,VALID,0.979688,
2011-05-26, 01:10:05,VALID,916.082,VALID,0,VALID,95.4604,VALID,0,VALID,20.9869,VALID,24,VALID,0.833594,
2011-05-26, 01:11:05,VALID,916.105,VALID,0,VALID,95.4909,VALID,0,VALID,21.008,VALID,24,VALID,0.871094,
2011-05-26, 01:12:05,VALID,916.096,VALID,0,VALID,95.4833,VALID,0,VALID,21.0275,VALID,24,VALID,0.769922,
2011-05-26, 01:13:05,VALID,916.134,VALID,0,VALID,95.3842,VALID,0,VALID,21.047,VALID,24,VALID,0.576563,
2011-05-26, 01:14:05,VALID,916.154,VALID,0,VALID,95.3918,VALID,0,VALID,21.0275,VALID,24,VALID,0.0800781,
2011-05-26, 01:15:05,VALID,916.124,VALID,0,VALID,95.3689,VALID,0,VALID,21.047,VALID,24,VALID,0.276563,
2011-05-26, 01:16:05,VALID,916.11,VALID,0,VALID,95.3461,VALID,0,VALID,21.047,VALID,24,VALID,0.449609,
2011-05-26, 01:17:05,VALID,916.078,VALID,0,VALID,95.3461,VALID,0,VALID,21.008,VALID,24,VALID,0.225,
2011-05-26, 01:18:05,VALID,916.076,VALID,0,VALID,95.3003,VALID,0,VALID,21.008,VALID,24,VALID,0.331641,
2011-05-26, 01:19:05,VALID,916.052,VALID,0,VALID,95.3156,VALID,0,VALID,20.9885,VALID,24,VALID,0,
2011-05-26, 01:20:05,VALID,916.019,VALID,0,VALID,95.3918,VALID,0,VALID,21.0291,VALID,24,VALID,0.538281,
2011-05-26, 01:21:05,VALID,915.998,VALID,0,VALID,95.468,VALID,0,VALID,21.0502,VALID,24,VALID,0.621484,
2011-05-26, 01:22:05,VALID,916.031,VALID,0,VALID,95.4833,VALID,0,VALID,21.0275,VALID,24,VALID,0.563281,
2011-05-26, 01:23:05,VALID,915.988,VALID,0,VALID,95.4299,VALID,0,VALID,21.0275,VALID,357,VALID,0.617188,
2011-05-26, 01:24:05,VALID,915.999,VALID,0,VALID,95.5367,VALID,0,VALID,21.008,VALID,357,VALID,0.953906,
2011-05-26, 01:25:05,VALID,915.955,VALID,0,VALID,95.5824,VALID,0,VALID,21.0713,VALID,33,VALID,1.16914,
2011-05-26, 01:26:05,VALID,915.928,VALID,0,VALID,95.5671,VALID,0,VALID,21.0291,VALID,6,VALID,0.938281,
2011-05-26, 01:27:05,VALID,915.918,VALID,0,VALID,95.6129,VALID,0,VALID,21.0064,VALID,24,VALID,0.975391,
2011-05-26, 01:28:05,VALID,915.887,VALID,0,VALID,95.651,VALID,0,VALID,20.9869,VALID,28,VALID,1.46484,
2011-05-26, 01:29:05,VALID,915.88,VALID,0,VALID,95.6815,VALID,0,VALID,20.9885,VALID,39,VALID,1.00859,
2011-05-26, 01:30:05,VALID,915.873,VALID,0,VALID,95.712,VALID,0,VALID,20.9885,VALID,19,VALID,0.911719,
2011-05-26, 01:31:05,VALID,915.846,VALID,0,VALID,95.6891,VALID,0,VALID,21.008,VALID,19,VALID,0.997266,
2011-05-26, 01:32:05,VALID,915.805,VALID,0,VALID,95.7044,VALID,0,VALID,20.9674,VALID,19,VALID,1.03047,
2011-05-26, 01:33:05,VALID,915.828,VALID,0,VALID,95.7501,VALID,0,VALID,21.0275,VALID,19,VALID,1.03398,
2011-05-26, 01:34:05,VALID,915.796,VALID,0,VALID,95.6281,VALID,0,VALID,21.0064,VALID,19,VALID,0.778906,
2011-05-26, 01:35:05,VALID,915.801,VALID,0,VALID,95.6891,VALID,0,VALID,21.047,VALID,19,VALID,0.807422,
2011-05-26, 01:36:05,VALID,915.775,VALID,0,VALID,95.7044,VALID,0,VALID,21.047,VALID,19,VALID,1.09531,
2011-05-26, 01:37:05,VALID,915.79,VALID,0,VALID,95.651,VALID,0,VALID,21.0454,VALID,19,VALID,1.14414,
2011-05-26, 01:38:05,VALID,915.744,VALID,0,VALID,95.5671,VALID,0,VALID,21.0259,VALID,19,VALID,1.22578,
2011-05-26, 01:39:05,VALID,915.776,VALID,0,VALID,95.5443,VALID,0,VALID,21.0665,VALID,14,VALID,1.15977,
2011-05-26, 01:40:05,VALID,915.761,VALID,0,VALID,95.5367,VALID,0,VALID,21.008,VALID,14,VALID,1.09727,
2011-05-26, 01:41:05,VALID,915.771,VALID,0,VALID,95.4909,VALID,0,VALID,20.9642,VALID,17,VALID,1.33516,
2011-05-26, 01:42:05,VALID,915.755,VALID,0,VALID,95.5214,VALID,0,VALID,21.008,VALID,17,VALID,1.21055,
2011-05-26, 01:43:05,VALID,915.801,VALID,0,VALID,95.5671,VALID,0,VALID,21.0064,VALID,17,VALID,1.04609,
2011-05-26, 01:44:05,VALID,915.815,VALID,0,VALID,95.4833,VALID,0,VALID,20.9268,VALID,17,VALID,1.4543,
2011-05-26, 01:45:05,VALID,915.823,VALID,0,VALID,95.4604,VALID,0,VALID,20.969,VALID,348,VALID,1.02891,
2011-05-26, 01:46:05,VALID,915.847,VALID,0,VALID,95.468,VALID,0,VALID,20.9674,VALID,13,VALID,1.14336,
2011-05-26, 01:47:05,VALID,915.864,VALID,0,VALID,95.3994,VALID,0,VALID,20.9885,VALID,15,VALID,1.70117,
2011-05-26, 01:48:05,VALID,915.857,VALID,0,VALID,95.4071,VALID,0.107441,VALID,21.0112,VALID,21,VALID,1.34258,
2011-05-26, 01:49:05,VALID,915.834,VALID,0,VALID,95.3461,VALID,0,VALID,20.9869,VALID,21,VALID,1.10664,
2011-05-26, 01:50:05,VALID,915.824,VALID,0,VALID,95.3308,VALID,0,VALID,21.0908,VALID,21,VALID,0.844531,
2011-05-26, 01:51:05,VALID,915.774,VALID,0,VALID,95.2927,VALID,0,VALID,21.0291,VALID,21,VALID,1.00234,
2011-05-26, 01:52:05,VALID,915.807,VALID,0,VALID,95.2622,VALID,0,VALID,21.0502,VALID,21,VALID,1.13594,
2011-05-26, 01:53:05,VALID,915.779,VALID,0,VALID,95.247,VALID,0,VALID,20.9885,VALID,21,VALID,1.06133,
2011-05-26, 01:54:05,VALID,915.769,VALID,0,VALID,95.1555,VALID,0,VALID,20.9706,VALID,21,VALID,0.946484,
2011-05-26, 01:55:05,VALID,915.733,VALID,0,VALID,95.2012,VALID,0,VALID,20.9495,VALID,21,VALID,0.816797,
2011-05-26, 01:56:05,VALID,915.739,VALID,0,VALID,95.2775,VALID,0,VALID,20.9869,VALID,21,VALID,0.261719,
2011-05-26, 01:57:05,VALID,915.719,VALID,0,VALID,95.4299,VALID,0,VALID,20.9885,VALID,21,VALID,0.266797,
2011-05-26, 01:58:05,VALID,915.758,VALID,0,VALID,95.5062,VALID,0,VALID,21.008,VALID,21,VALID,0.101563,
2011-05-26, 01:59:05,VALID,915.726,VALID,0,VALID,95.4985,VALID,0,VALID,21.0275,VALID,21,VALID,0,
2011-05-26, 02:00:05,VALID,915.728,VALID,0,VALID,95.5214,VALID,0,VALID,21.0275,VALID,21,VALID,0.555859,
2011-05-26, 02:01:05,VALID,915.725,VALID,0,VALID,95.529,VALID,0,VALID,21.0275,VALID,21,VALID,0.529297,
2011-05-26, 02:02:05,VALID,915.703,VALID,0,VALID,95.529,VALID,0,VALID,21.0275,VALID,21,VALID,0.571484,
2011-05-26, 02:03:05,VALID,915.721,VALID,0,VALID,95.4604,VALID,0,VALID,21.047,VALID,21,VALID,0.191016,
2011-05-26, 02:04:05,VALID,915.708,VALID,0,VALID,95.2927,VALID,0,VALID,20.969,VALID,21,VALID,0.68125,
2011-05-26, 02:05:05,VALID,915.692,VALID,0,VALID,95.4528,VALID,0,VALID,21.008,VALID,21,VALID,0.75,
2011-05-26, 02:06:05,VALID,915.687,VALID,0,VALID,95.4223,VALID,0,VALID,20.9885,VALID,21,VALID,0.300781,
2011-05-26, 02:07:05,VALID,915.667,VALID,0,VALID,95.5138,VALID,0,VALID,20.9885,VALID,21,VALID,0.234766,
2011-05-26, 02:08:05,VALID,915.664,VALID,0,VALID,95.4452,VALID,0,VALID,20.969,VALID,21,VALID,0.378906,
2011-05-26, 02:09:05,VALID,915.671,VALID,0,VALID,95.4071,VALID,0.107441,VALID,20.9495,VALID,21,VALID,0.691797,
2011-05-26, 02:10:05,VALID,915.633,VALID,0,VALID,95.4147,VALID,0,VALID,20.9511,VALID,21,VALID,0.498047,
2011-05-26, 02:11:05,VALID,915.643,VALID,0,VALID,95.4528,VALID,0,VALID,20.891,VALID,21,VALID,0.585156,
2011-05-26, 02:12:05,VALID,915.629,VALID,0,VALID,95.3384,VALID,0,VALID,20.873,VALID,21,VALID,0.9125,
2011-05-26, 02:13:05,VALID,915.614,VALID,0,VALID,95.2851,VALID,0,VALID,20.8519,VALID,21,VALID,1.24023,
2011-05-26, 02:14:05,VALID,915.58,VALID,0,VALID,95.2851,VALID,0,VALID,20.8519,VALID,357,VALID,1.21367,
2011-05-26, 02:15:05,VALID,915.603,VALID,0,VALID,95.3613,VALID,0,VALID,20.8324,VALID,341,VALID,0.944531,
2011-05-26, 02:16:05,VALID,915.596,VALID,0,VALID,95.4985,VALID,0,VALID,20.8519,VALID,341,VALID,0.851172,
2011-05-26, 02:17:05,VALID,915.59,VALID,0,VALID,95.5062,VALID,0,VALID,20.7918,VALID,341,VALID,0.966797,
2011-05-26, 02:18:05,VALID,915.559,VALID,0,VALID,95.5443,VALID,0,VALID,20.8145,VALID,341,VALID,0.751562,
2011-05-26, 02:19:05,VALID,915.562,VALID,0,VALID,95.6053,VALID,0,VALID,20.795,VALID,359,VALID,1.33711,
2011-05-26, 02:20:05,VALID,915.57,VALID,0,VALID,95.7044,VALID,0,VALID,20.7739,VALID,16,VALID,1.70156,
2011-05-26, 02:21:05,VALID,915.554,VALID,0,VALID,95.7501,VALID,0,VALID,20.7739,VALID,6,VALID,1.42422,
2011-05-26, 02:22:05,VALID,915.55,VALID,0,VALID,95.712,VALID,0,VALID,20.7544,VALID,14,VALID,1.23477,
2011-05-26, 02:23:05,VALID,915.547,VALID,0,VALID,95.834,VALID,0,VALID,20.795,VALID,13,VALID,0.930078,
2011-05-26, 02:24:05,VALID,915.535,VALID,0.2,VALID,95.8263,VALID,0,VALID,20.7934,VALID,13,VALID,1.01953,
2011-05-26, 02:25:05,VALID,915.554,VALID,0,VALID,95.8111,VALID,0,VALID,20.7934,VALID,14,VALID,1.00664,
2011-05-26, 02:26:05,VALID,915.497,VALID,0,VALID,95.8797,VALID,0,VALID,20.7934,VALID,14,VALID,0.814062,
2011-05-26, 02:27:05,VALID,915.517,VALID,0,VALID,95.9178,VALID,0,VALID,20.8129,VALID,14,VALID,1.00977,
2011-05-26, 02:28:05,VALID,915.521,VALID,0,VALID,95.8492,VALID,0,VALID,20.7934,VALID,13,VALID,0.708984,
2011-05-26, 02:29:05,VALID,915.476,VALID,0,VALID,95.7577,VALID,0,VALID,20.7739,VALID,13,VALID,0.823438,
2011-05-26, 02:30:05,VALID,915.472,VALID,0,VALID,95.8187,VALID,0,VALID,20.7739,VALID,13,VALID,0.485547,
2011-05-26, 02:31:05,VALID,915.462,VALID,0,VALID,95.834,VALID,0,VALID,20.7544,VALID,13,VALID,0.791016,
2011-05-26, 02:32:05,VALID,915.459,VALID,0,VALID,95.7654,VALID,0,VALID,20.7365,VALID,13,VALID,0.89375,
2011-05-26, 02:33:05,VALID,915.417,VALID,0,VALID,95.8035,VALID,0,VALID,20.7154,VALID,14,VALID,1.06914,
2011-05-26, 02:34:05,VALID,915.418,VALID,0,VALID,95.8721,VALID,0,VALID,20.7154,VALID,14,VALID,1.07461,
2011-05-26, 02:35:05,VALID,915.413,VALID,0,VALID,95.834,VALID,0,VALID,20.7154,VALID,13,VALID,1.20703,
2011-05-26, 02:36:05,VALID,915.391,VALID,0,VALID,95.9559,VALID,0,VALID,20.6959,VALID,13,VALID,0.528125,
2011-05-26, 02:37:05,VALID,915.416,VALID,0,VALID,95.9026,VALID,0,VALID,20.717,VALID,14,VALID,0.773047,
2011-05-26, 02:38:05,VALID,915.411,VALID,0,VALID,95.8721,VALID,0,VALID,20.6764,VALID,14,VALID,0.421875,
2011-05-26, 02:39:05,VALID,915.451,VALID,0,VALID,95.895,VALID,0.107441,VALID,20.6764,VALID,13,VALID,0.684375,
2011-05-26, 02:40:05,VALID,915.44,VALID,0,VALID,95.9636,VALID,0,VALID,20.6569,VALID,14,VALID,0.175,
2011-05-26, 02:41:05,VALID,915.434,VALID,0,VALID,95.9254,VALID,0,VALID,20.6569,VALID,14,VALID,0.577734,
2011-05-26, 02:42:05,VALID,915.457,VALID,0,VALID,95.9483,VALID,0,VALID,20.6179,VALID,14,VALID,0.637109,
2011-05-26, 02:43:05,VALID,915.476,VALID,0,VALID,96.0245,VALID,0,VALID,20.6179,VALID,14,VALID,0.688672,
2011-05-26, 02:44:05,VALID,915.512,VALID,0,VALID,96.0779,VALID,0,VALID,20.6179,VALID,14,VALID,0.660547,
2011-05-26, 02:45:05,VALID,915.487,VALID,0,VALID,96.1084,VALID,0,VALID,20.6194,VALID,14,VALID,0.325391,
2011-05-26, 02:46:05,VALID,915.535,VALID,0,VALID,96.1541,VALID,0,VALID,20.5594,VALID,13,VALID,0.303516,
2011-05-26, 02:47:05,VALID,915.552,VALID,0,VALID,96.1541,VALID,0.107441,VALID,20.5594,VALID,14,VALID,0.208984,
2011-05-26, 02:48:05,VALID,915.554,VALID,0,VALID,96.2304,VALID,0,VALID,20.5609,VALID,13,VALID,0.208984,
2011-05-26, 02:49:05,VALID,915.567,VALID,0,VALID,96.2609,VALID,0,VALID,20.5204,VALID,13,VALID,0.446094,
2011-05-26, 02:50:05,VALID,915.559,VALID,0,VALID,96.299,VALID,0,VALID,20.5009,VALID,13,VALID,0.371484,
2011-05-26, 02:51:05,VALID,915.558,VALID,0,VALID,96.3447,VALID,0,VALID,20.5219,VALID,14,VALID,0.168359,
2011-05-26, 02:52:05,VALID,915.542,VALID,0,VALID,96.3676,VALID,0,VALID,20.5009,VALID,13,VALID,0.493359,
2011-05-26, 02:53:05,VALID,915.547,VALID,0,VALID,96.3829,VALID,0,VALID,20.4813,VALID,14,VALID,0.467187,
2011-05-26, 02:54:05,VALID,915.565,VALID,0,VALID,96.3981,VALID,0,VALID,20.4829,VALID,14,VALID,0.475,
2011-05-26, 02:55:05,VALID,915.549,VALID,0,VALID,96.421,VALID,0,VALID,20.4829,VALID,14,VALID,0.682813,
2011-05-26, 02:56:05,VALID,915.543,VALID,0,VALID,96.4667,VALID,0,VALID,20.4618,VALID,13,VALID,0.712891,
2011-05-26, 02:57:05,VALID,915.565,VALID,0,VALID,96.5048,VALID,0,VALID,20.4618,VALID,13,VALID,0.755859,
2011-05-26, 02:58:05,VALID,915.548,VALID,0,VALID,96.5277,VALID,0,VALID,20.4813,VALID,13,VALID,0.630859,
2011-05-26, 02:59:05,VALID,915.546,VALID,0,VALID,96.5734,VALID,0,VALID,20.4813,VALID,14,VALID,0.723828,
2011-05-26, 03:00:05,VALID,915.536,VALID,0,VALID,96.642,VALID,0,VALID,20.5219,VALID,14,VALID,0.350391,
2011-05-26, 03:01:05,VALID,915.517,VALID,0,VALID,96.6573,VALID,0,VALID,20.5204,VALID,13,VALID,0.376172,
2011-05-26, 03:02:05,VALID,915.497,VALID,0,VALID,96.5582,VALID,0,VALID,20.5219,VALID,13,VALID,0.353125,
2011-05-26, 03:03:05,VALID,915.476,VALID,0,VALID,96.5887,VALID,0,VALID,20.5024,VALID,14,VALID,0.492578,
2011-05-26, 03:04:05,VALID,915.448,VALID,0,VALID,96.5887,VALID,0,VALID,20.4813,VALID,13,VALID,0.413672,
2011-05-26, 03:05:05,VALID,915.447,VALID,0,VALID,96.6115,VALID,0,VALID,20.5009,VALID,13,VALID,0.237891,
2011-05-26, 03:06:05,VALID,915.44,VALID,0,VALID,96.5887,VALID,0,VALID,20.5009,VALID,13,VALID,0.230078,
2011-05-26, 03:07:05,VALID,915.39,VALID,0,VALID,96.5887,VALID,0,VALID,20.5204,VALID,14,VALID,0.136328,
2011-05-26, 03:08:05,VALID,915.389,VALID,0,VALID,96.6192,VALID,0,VALID,20.5399,VALID,14,VALID,0.0660156,
2011-05-26, 03:09:05,VALID,915.367,VALID,0,VALID,96.5658,VALID,0,VALID,20.5399,VALID,14,VALID,0.317578,
2011-05-26, 03:10:05,VALID,915.356,VALID,0,VALID,96.5658,VALID,0.107441,VALID,20.5594,VALID,14,VALID,0.547266,
2011-05-26, 03:11:05,VALID,915.319,VALID,0,VALID,96.4972,VALID,0,VALID,20.5399,VALID,14,VALID,0.976172,
2011-05-26, 03:12:05,VALID,915.298,VALID,0,VALID,96.4438,VALID,0,VALID,20.5204,VALID,14,VALID,1.1043,
2011-05-26, 03:13:05,VALID,915.305,VALID,0,VALID,96.421,VALID,0,VALID,20.5204,VALID,14,VALID,1.08711,
2011-05-26, 03:14:05,VALID,915.307,VALID,0,VALID,96.4286,VALID,0,VALID,20.5204,VALID,14,VALID,0.880469,
2011-05-26, 03:15:05,VALID,915.288,VALID,0,VALID,96.3981,VALID,0,VALID,20.5219,VALID,14,VALID,0.878906,
2011-05-26, 03:16:05,VALID,915.283,VALID,0,VALID,96.3295,VALID,0,VALID,20.5219,VALID,3,VALID,0.755469,
2011-05-26, 03:17:05,VALID,915.264,VALID,0,VALID,96.3142,VALID,0,VALID,20.5219,VALID,360,VALID,0.847266,
2011-05-26, 03:18:05,VALID,915.266,VALID,0,VALID,96.2914,VALID,0,VALID,20.5009,VALID,360,VALID,1.18398,
2011-05-26, 03:19:05,VALID,915.263,VALID,0,VALID,96.2609,VALID,0,VALID,20.5009,VALID,360,VALID,1.01758,
2011-05-26, 03:20:05,VALID,915.227,VALID,0,VALID,96.2456,VALID,0,VALID,20.5204,VALID,360,VALID,1.01484,
2011-05-26, 03:21:05,VALID,915.255,VALID,0,VALID,96.1846,VALID,0,VALID,20.5594,VALID,360,VALID,0.785156,
2011-05-26, 03:22:05,VALID,915.231,VALID,0,VALID,96.1465,VALID,0,VALID,20.5789,VALID,360,VALID,0.805859,
2011-05-26, 03:23:05,VALID,915.25,VALID,0,VALID,95.9788,VALID,0.107441,VALID,20.5594,VALID,360,VALID,0.696484,
2011-05-26, 03:24:05,VALID,915.25,VALID,0,VALID,95.8721,VALID,0,VALID,20.5999,VALID,360,VALID,0.565625,
2011-05-26, 03:25:05,VALID,915.272,VALID,0,VALID,95.8035,VALID,0,VALID,20.5999,VALID,360,VALID,0.577734,
2011-05-26, 03:26:05,VALID,915.262,VALID,0,VALID,95.7044,VALID,0,VALID,20.5789,VALID,360,VALID,0.605469,
2011-05-26, 03:27:05,VALID,915.29,VALID,0,VALID,95.6205,VALID,0,VALID,20.5789,VALID,360,VALID,0.494531,
2011-05-26, 03:28:05,VALID,915.316,VALID,0,VALID,95.5138,VALID,0.107441,VALID,20.5789,VALID,360,VALID,0.463672,
2011-05-26, 03:29:05,VALID,915.345,VALID,0,VALID,95.4299,VALID,0,VALID,20.5789,VALID,360,VALID,0.362109,
2011-05-26, 03:30:05,VALID,915.314,VALID,0,VALID,95.4299,VALID,0,VALID,20.5594,VALID,360,VALID,0.392188,
2011-05-26, 03:31:05,VALID,915.337,VALID,0,VALID,95.4299,VALID,0,VALID,20.5594,VALID,360,VALID,0.367188,
2011-05-26, 03:32:05,VALID,915.297,VALID,0,VALID,95.4071,VALID,0,VALID,20.5204,VALID,360,VALID,0.512109,
2011-05-26, 03:33:05,VALID,915.284,VALID,0,VALID,95.4299,VALID,0,VALID,20.5204,VALID,360,VALID,0.494922,
2011-05-26, 03:34:05,VALID,915.262,VALID,0,VALID,95.4833,VALID,0.107441,VALID,20.5009,VALID,360,VALID,0.590234,
2011-05-26, 03:35:05,VALID,915.218,VALID,0,VALID,95.529,VALID,0,VALID,20.5024,VALID,360,VALID,0.766797,
2011-05-26, 03:36:05,VALID,915.224,VALID,0,VALID,95.4985,VALID,0,VALID,20.4618,VALID,360,VALID,0.930469,
2011-05-26, 03:37:05,VALID,915.224,VALID,0,VALID,95.59,VALID,0,VALID,20.4813,VALID,360,VALID,0.627734,
2011-05-26, 03:38:05,VALID,915.211,VALID,0,VALID,95.4757,VALID,0,VALID,20.4829,VALID,360,VALID,0.765234,
2011-05-26, 03:39:05,VALID,915.173,VALID,0,VALID,95.4452,VALID,0,VALID,20.4829,VALID,360,VALID,0.649609,
2011-05-26, 03:40:05,VALID,915.178,VALID,0,VALID,95.4299,VALID,0,VALID,20.4829,VALID,360,VALID,0.300781,
2011-05-26, 03:41:05,VALID,915.186,VALID,0,VALID,95.4223,VALID,0,VALID,20.4829,VALID,360,VALID,0,
2011-05-26, 03:42:05,VALID,915.197,VALID,0,VALID,95.3384,VALID,0,VALID,20.4618,VALID,360,VALID,0.253125,
2011-05-26, 03:43:05,VALID,915.194,VALID,0,VALID,95.2775,VALID,0,VALID,20.4423,VALID,360,VALID,0.322656,
2011-05-26, 03:44:05,VALID,915.22,VALID,0,VALID,95.2393,VALID,0,VALID,20.4439,VALID,360,VALID,0.638672,
2011-05-26, 03:45:05,VALID,915.182,VALID,0,VALID,95.2698,VALID,0,VALID,20.4439,VALID,360,VALID,0.7125,
2011-05-26, 03:46:05,VALID,915.173,VALID,0,VALID,95.2851,VALID,0,VALID,20.4228,VALID,360,VALID,0.601953,